sat.trackr.live / text

‹ back to catalog

GLOBAL-2

NORAD 43812 · 2018-099BG

PAYLOAD ACTIVE UNKNOWN

§ Identity

Operator
Country
US
Launch date
2018-12-03
Launch site
AFWTR
Launch vehicle
Mass (kg)
RCS (m²)

External: N2YO · Heavens-Above · Gunter

§ Orbital elements

Epoch: 2026-09-14T12:49:28.246080Z

Period
95.42 min
Inclination
97.3496°
Eccentricity
0.0005252
Mean motion
15.09097786 rev/d
Perigee alt
535.3 km
Apogee alt
542.6 km
Semi-major
6,917.1 km
B*
1.1710e-4
RAAN
290.3279°
Arg perigee
190.9722°
Mean anomaly
169.1393°
Rev number
42,538

§ Raw data

GLOBAL-21 43812U 18099BG  26257.53435470  .00001796  00000+0  11710-3 0  99932 43812  97.3496 290.3279 0005252 190.9722 169.1393 15.09097786425380

JSON: /api/v1/satellites/43812 · /tle

For live sub-satellite position, see the globe view (requires WebGL).

§ Visibility from observer

Set your observer location to see the next 7 days of passes ≥ 10°. The values pass through the URL so the page stays shareable.

No JS? Fill the form by hand. The geolocation button needs JavaScript.

§ Radio — SatNOGS DB

ModeDescriptionDownlinkUplink
FM Downlink Mode U 401.500 MHz
FM Mode U - Possibly Downlink 400.749 MHz

2 transmitters · refreshed weekly from db.satnogs.org